Overview Statistics Trail Chart Weather Telemetry Raw packets
 

This is the latest recevied weather packets stored in our database for station/object N0HOT. If no packets are shown the sender has not sent any weather packets the latest 10 day(s).

<< 105 106 107 108 109 110 111 >>
Time Temp. Humidity Pressure Rain* Wind** Luminosity Snow
1787859849 27.78° C 43% 1017.3 hPa 0 mm - 644 W/m² -
1787859543 27.78° C 43% 1017.3 hPa 0 mm - 666 W/m² -
1787859237 27.78° C 43% 1017 hPa 0 mm - 701 W/m² -
1787858934 27.78° C 45% 1017.3 hPa 0 mm - 692 W/m² -
1787858629 27.22° C 42% 1017.3 hPa 0 mm - 712 W/m² -
1787858324 26.67° C 44% 1017.3 hPa 0 mm - 674 W/m² -
1787858019 26.67° C 44% 1017.3 hPa 0 mm - 610 W/m² -
1787857715 26.67° C 46% 1017.3 hPa 0 mm - 645 W/m² -
1787857411 26.11° C 44% 1017.3 hPa 0 mm - 695 W/m² -
1787857108 26.11° C 48% 1017.3 hPa 0 mm - 701 W/m² -
1787856804 26.11° C 52% 1017.3 hPa 0 mm - 691 W/m² -
1787856498 26.11° C 53% 1017.8 hPa 0 mm - 121 W/m² -
1787856193 26.11° C 52% 1017.8 hPa 0 mm - 159 W/m² -
1787855888 26.11° C 47% 1017.8 hPa 0 mm - 157 W/m² -
1787855583 26.11° C 48% 1017.8 hPa 0 mm - 627 W/m² -
1787855278 26.11° C 49% 1017.8 hPa 0 mm - 701 W/m² -
1787854973 26.11° C 48% 1017.3 hPa 0 mm - 177 W/m² -
1787854663 26.67° C 46% 1017.3 hPa 0 mm - 216 W/m² -
1787854362 26.67° C 48% 1017.8 hPa 0 mm - 561 W/m² -
1787854058 26.67° C 49% 1017.3 hPa 0 mm - 164 W/m² -
1787853756 26.67° C 46% 1017.8 hPa 0 mm - 600 W/m² -
1787853451 26.67° C 46% 1017.8 hPa 0 mm - 180 W/m² -
1787853150 26.67° C 49% 1017.8 hPa 0 mm - 682 W/m² -
1787852845 26.67° C 43% 1017.8 hPa 0 mm - 142 W/m² -
1787852544 26.67° C 44% 1017.8 hPa 0 mm - 696 W/m² -

* Rain latest hour (hover to see other rain measurements)
** Current wind speed in m/s (hover to see current wind gust speed)